Location: Newark
(13.2833°S, 176.1833°W)
Time: 07:30:16
(UTC+00:00)

Hubble Space Telescope - Pass Details

Date: 25 November 2019
Orbit: 536 x 540 km, 28.5° (Epoch: 12 December)

Event Time Altitude Azimuth Distance (km) Brightness Sun altitude
Exits shadow 14:33:05 14° 156° (SSE) 1,552 3.7 -33.9°
Drops below altitude 10° 14:33:57 10° 147° (SSE) 1,795 4.2 -33.8°
Sets 14:36:37 0° 131° (SE) 2,687 5.4 -33.2°
